timestamp,wind_dir_avg,wind_spd_avg,wind_spd_max_dir,wind_spd_gust,battery_voltage,lat,long
2023-07-27 00:04:00+00:00,210.0,8.48,209.0,9.43,12.57,47.59359,-54.27349
2023-07-27 00:14:00+00:00,206.0,8.48,208.0,10.06,12.41,47.59359,-54.27349
2023-07-27 00:24:00+00:00,215.0,8.17,220.0,9.45,12.41,47.59359,-54.27349
2023-07-27 00:34:00+00:00,216.0,8.69,219.0,10.14,12.41,47.59359,-54.27349
2023-07-27 00:44:00+00:00,216.0,10.03,217.0,10.92,12.41,47.59359,-54.27349
2023-07-27 00:54:00+00:00,222.0,7.81,226.0,8.63,12.41,47.59359,-54.27349
2023-07-27 01:04:00+00:00,228.0,7.65,227.0,9.26,12.41,47.59359,-54.27349
2023-07-27 01:14:01+00:00,228.0,7.33,220.0,8.54,12.41,47.59359,-54.27349
2023-07-27 01:24:01+00:00,229.0,7.31,229.0,8.67,12.41,47.59359,-54.27349
2023-07-27 01:34:01+00:00,228.0,6.7,233.0,7.84,12.41,47.59359,-54.27349
2023-07-27 01:44:01+00:00,232.0,6.52,233.0,7.4,12.41,47.59359,-54.27349
2023-07-27 01:54:01+00:00,235.0,6.15,236.0,7.3,12.41,47.59359,-54.27349
2023-07-27 02:04:01+00:00,232.0,6.51,238.0,7.54,12.41,47.59359,-54.27349
2023-07-27 02:14:01+00:00,238.0,5.12,240.0,5.97,12.41,47.59359,-54.27349
2023-07-27 02:24:01+00:00,250.0,5.04,249.0,5.99,12.41,47.59359,-54.27349
2023-07-27 02:34:01+00:00,243.0,4.63,248.0,5.02,12.41,47.59359,-54.27349
2023-07-27 02:44:01+00:00,239.0,4.75,243.0,5.11,12.41,47.59359,-54.27349
2023-07-27 02:54:01+00:00,229.0,5.35,229.0,5.87,12.41,47.59359,-54.27349
2023-07-27 03:04:01+00:00,218.0,4.43,221.0,5.02,12.41,47.59359,-54.27349
2023-07-27 03:14:00+00:00,217.0,4.48,215.0,5.44,12.41,47.59359,-54.27349
2023-07-27 03:24:00+00:00,216.0,4.71,233.0,5.59,12.41,47.59359,-54.27349
2023-07-27 03:34:00+00:00,225.0,4.81,226.0,5.32,12.41,47.59359,-54.27349
2023-07-27 03:44:00+00:00,228.0,4.98,228.0,5.73,12.41,47.59359,-54.27349
2023-07-27 03:54:00+00:00,229.0,5.1,232.0,5.66,12.41,47.59359,-54.27349
2023-07-27 04:04:00+00:00,241.0,5.2,243.0,5.76,12.41,47.59359,-54.27349
2023-07-27 04:14:00+00:00,219.0,4.61,218.0,5.09,12.41,47.59359,-54.27349
2023-07-27 04:24:00+00:00,227.0,4.21,221.0,5.33,12.41,47.59359,-54.27349
2023-07-27 04:34:00+00:00,219.0,4.41,222.0,4.79,12.41,47.59359,-54.27349
2023-07-27 04:44:00+00:00,201.0,3.45,227.0,4.7,12.41,47.59359,-54.27349
2023-07-27 04:54:00+00:00,212.0,4.49,222.0,5.65,12.41,47.59359,-54.27349
2023-07-27 05:04:00+00:00,232.0,3.38,224.0,4.16,12.41,47.59359,-54.27349
2023-07-27 05:14:00+00:00,244.0,4.32,240.0,4.74,12.33,47.59359,-54.27349
2023-07-27 05:24:00+00:00,235.0,5.39,235.0,6.04,12.33,47.59359,-54.27349
2023-07-27 05:34:00+00:00,219.0,3.66,228.0,4.79,12.33,47.59359,-54.27349
2023-07-27 05:44:00+00:00,221.0,4.3,223.0,5.38,12.33,47.59359,-54.27349
2023-07-27 05:54:00+00:00,220.0,4.54,221.0,6.37,12.33,47.59359,-54.27349
2023-07-27 06:04:00+00:00,226.0,4.2,223.0,4.73,12.33,47.59359,-54.27349
2023-07-27 06:14:01+00:00,225.0,4.42,225.0,5.53,12.33,47.59359,-54.27349
2023-07-27 06:24:01+00:00,232.0,4.38,238.0,4.94,12.33,47.59359,-54.27349
2023-07-27 06:34:01+00:00,234.0,4.57,232.0,5.13,12.33,47.59359,-54.27349
2023-07-27 06:44:01+00:00,253.0,4.55,259.0,5.36,12.33,47.59359,-54.27349
2023-07-27 06:54:01+00:00,250.0,4.23,248.0,4.77,12.33,47.59359,-54.27349
2023-07-27 07:04:01+00:00,248.0,4.73,251.0,5.43,12.33,47.59359,-54.27349
2023-07-27 07:14:01+00:00,268.0,5.52,269.0,7.33,12.25,47.59359,-54.27349
2023-07-27 07:24:01+00:00,270.0,6.3,264.0,7.29,12.25,47.59359,-54.27349
2023-07-27 07:34:01+00:00,263.0,4.96,265.0,5.61,12.25,47.59359,-54.27349
2023-07-27 07:44:01+00:00,244.0,5.61,247.0,6.07,12.25,47.59359,-54.27349
2023-07-27 07:54:01+00:00,257.0,5.92,253.0,6.79,12.25,47.59359,-54.27349
2023-07-27 08:04:01+00:00,240.0,5.45,240.0,5.82,12.25,47.59359,-54.27349
2023-07-27 08:14:01+00:00,220.0,5.19,208.0,5.87,12.25,47.59359,-54.27349
2023-07-27 08:24:01+00:00,204.0,6.06,204.0,6.92,12.25,47.59359,-54.27349
2023-07-27 08:34:01+00:00,201.0,6.77,198.0,7.48,12.25,47.59359,-54.27349
2023-07-27 08:44:01+00:00,204.0,7.32,203.0,8.12,12.25,47.59359,-54.27349
2023-07-27 08:54:01+00:00,211.0,7.7,213.0,8.49,12.25,47.59359,-54.27349
2023-07-27 09:04:01+00:00,216.0,6.71,211.0,8.15,12.25,47.59359,-54.27349
2023-07-27 09:14:00+00:00,218.0,6.76,216.0,7.55,12.49,47.59359,-54.27349
2023-07-27 09:24:00+00:00,209.0,6.51,213.0,7.23,12.49,47.59359,-54.27349
2023-07-27 09:34:00+00:00,213.0,6.5,215.0,7.48,12.49,47.59359,-54.27349
2023-07-27 09:44:00+00:00,211.0,6.39,213.0,7.63,12.49,47.59359,-54.27349
2023-07-27 09:54:00+00:00,210.0,8.0,209.0,9.12,12.49,47.59359,-54.27349
2023-07-27 10:04:00+00:00,200.0,8.37,202.0,8.9,12.49,47.59359,-54.27349
2023-07-27 10:14:00+00:00,197.0,7.36,202.0,7.92,13.21,47.59359,-54.27349
2023-07-27 10:24:00+00:00,194.0,7.28,196.0,8.25,13.21,47.59359,-54.27349
2023-07-27 10:34:00+00:00,189.0,7.07,187.0,7.9,13.21,47.59359,-54.27349
2023-07-27 10:44:00+00:00,191.0,6.91,191.0,7.64,13.21,47.59359,-54.27349
2023-07-27 10:54:00+00:00,191.0,6.36,194.0,7.12,13.21,47.59359,-54.27349
2023-07-27 11:04:00+00:00,194.0,6.46,201.0,7.6,13.21,47.59359,-54.27349
2023-07-27 11:14:01+00:00,203.0,7.01,202.0,7.8,13.21,47.59359,-54.27349
2023-07-27 11:24:01+00:00,204.0,6.58,204.0,7.16,13.21,47.59359,-54.27349
2023-07-27 11:34:01+00:00,204.0,7.16,206.0,8.05,13.21,47.59359,-54.27349
2023-07-27 11:44:01+00:00,201.0,7.29,203.0,8.39,13.21,47.59359,-54.27349
2023-07-27 11:54:01+00:00,203.0,7.43,206.0,8.36,13.21,47.59359,-54.27349
2023-07-27 12:04:01+00:00,200.0,7.9,200.0,8.81,13.21,47.59359,-54.27349
2023-07-27 12:14:00+00:00,206.0,9.36,212.0,10.75,13.92,47.59359,-54.27349
2023-07-27 12:24:00+00:00,209.0,7.91,213.0,9.38,13.92,47.59359,-54.27349
2023-07-27 12:34:00+00:00,215.0,9.41,226.0,11.69,13.92,47.59359,-54.27349
2023-07-27 12:44:00+00:00,215.0,8.77,224.0,10.3,13.92,47.59359,-54.27349
2023-07-27 12:54:00+00:00,214.0,9.11,225.0,11.74,13.92,47.59359,-54.27349
2023-07-27 13:04:00+00:00,215.0,9.44,223.0,10.98,13.92,47.59359,-54.27349
2023-07-27 13:14:01+00:00,212.0,8.48,219.0,9.9,14.32,47.59359,-54.27349
2023-07-27 13:24:01+00:00,210.0,8.43,218.0,9.84,14.32,47.59359,-54.27349
2023-07-27 13:34:01+00:00,207.0,8.01,214.0,9.17,14.32,47.59359,-54.27349
2023-07-27 13:44:01+00:00,206.0,8.41,204.0,9.43,14.32,47.59359,-54.27349
2023-07-27 13:54:01+00:00,211.0,9.23,225.0,11.32,14.32,47.59359,-54.27349
2023-07-27 14:04:01+00:00,218.0,10.39,226.0,13.13,14.32,47.59359,-54.27349
2023-07-27 14:14:00+00:00,209.0,8.95,216.0,10.68,13.92,47.59359,-54.27349
2023-07-27 14:24:00+00:00,220.0,10.36,226.0,12.63,13.92,47.59359,-54.27349
2023-07-27 14:34:00+00:00,223.0,11.16,229.0,13.21,13.92,47.59359,-54.27349
2023-07-27 14:44:00+00:00,224.0,8.95,232.0,11.59,13.92,47.59359,-54.27349
2023-07-27 14:54:00+00:00,225.0,9.19,231.0,11.72,13.92,47.59359,-54.27349
2023-07-27 15:04:00+00:00,226.0,9.62,232.0,11.79,13.92,47.59359,-54.27349
2023-07-27 15:14:00+00:00,217.0,7.93,232.0,10.75,13.84,47.59359,-54.27349
2023-07-27 15:24:00+00:00,226.0,10.61,232.0,12.73,13.84,47.59359,-54.27349
2023-07-27 15:34:00+00:00,230.0,11.66,232.0,13.48,13.84,47.59359,-54.27349
2023-07-27 15:44:00+00:00,230.0,11.01,233.0,12.86,13.84,47.59359,-54.27349
2023-07-27 15:54:00+00:00,229.0,10.82,234.0,12.77,13.84,47.59359,-54.27349
2023-07-27 16:04:00+00:00,227.0,12.44,227.0,14.22,13.84,47.59359,-54.27349
2023-07-27 16:14:00+00:00,227.0,12.98,229.0,14.6,14.32,47.59359,-54.27349
2023-07-27 16:24:00+00:00,227.0,13.28,226.0,14.6,14.32,47.59359,-54.27349
2023-07-27 16:34:00+00:00,222.0,9.96,231.0,12.82,14.32,47.59359,-54.27349
2023-07-27 16:44:00+00:00,225.0,11.83,227.0,14.2,14.32,47.59359,-54.27349
2023-07-27 16:54:00+00:00,222.0,11.75,227.0,14.43,14.32,47.59359,-54.27349
2023-07-27 17:04:00+00:00,223.0,13.08,224.0,14.7,14.32,47.59359,-54.27349
2023-07-27 17:14:00+00:00,226.0,12.03,228.0,14.51,14.24,47.59359,-54.27349
2023-07-27 17:24:00+00:00,226.0,11.9,225.0,14.06,14.24,47.59359,-54.27349
2023-07-27 17:34:00+00:00,224.0,11.6,230.0,13.47,14.24,47.59359,-54.27349
2023-07-27 17:44:00+00:00,221.0,12.17,223.0,14.31,14.24,47.59359,-54.27349
2023-07-27 17:54:00+00:00,217.0,10.74,220.0,13.46,14.24,47.59359,-54.27349
2023-07-27 18:04:00+00:00,211.0,10.82,211.0,12.62,14.24,47.59359,-54.27349
2023-07-27 18:14:01+00:00,212.0,11.13,215.0,13.49,13.68,47.59359,-54.27349
2023-07-27 18:24:01+00:00,212.0,10.88,224.0,12.35,13.68,47.59359,-54.27349
2023-07-27 18:34:01+00:00,211.0,11.36,214.0,13.29,13.68,47.59359,-54.27349
2023-07-27 18:44:01+00:00,208.0,10.62,211.0,11.63,13.68,47.59359,-54.27349
2023-07-27 18:54:01+00:00,212.0,11.55,211.0,13.48,13.68,47.59359,-54.27349
2023-07-27 19:04:01+00:00,213.0,10.89,221.0,12.8,13.68,47.59359,-54.27349
2023-07-27 19:14:00+00:00,214.0,11.63,217.0,13.65,13.44,47.59359,-54.27349
2023-07-27 19:24:00+00:00,213.0,11.85,224.0,13.76,13.44,47.59359,-54.27349
2023-07-27 19:34:00+00:00,212.0,11.21,218.0,13.75,13.44,47.59359,-54.27349
2023-07-27 19:44:00+00:00,213.0,9.23,215.0,10.96,13.44,47.59359,-54.27349
2023-07-27 19:54:00+00:00,218.0,7.35,220.0,8.25,13.44,47.59359,-54.27349
2023-07-27 20:04:00+00:00,215.0,9.22,224.0,11.14,13.44,47.59359,-54.27349
2023-07-27 20:14:00+00:00,217.0,10.91,228.0,13.8,13.44,47.59359,-54.27349
2023-07-27 20:24:00+00:00,218.0,7.73,221.0,8.44,13.44,47.59359,-54.27349
2023-07-27 20:34:00+00:00,213.0,9.17,219.0,10.43,13.44,47.59359,-54.27349
2023-07-27 20:44:00+00:00,214.0,9.28,221.0,10.92,13.44,47.59359,-54.27349
2023-07-27 20:54:00+00:00,216.0,10.48,224.0,12.15,13.44,47.59359,-54.27349
2023-07-27 21:04:00+00:00,213.0,9.95,218.0,11.36,13.44,47.59359,-54.27349
2023-07-27 21:14:00+00:00,214.0,10.6,219.0,12.28,13.53,47.59359,-54.27349
2023-07-27 21:24:00+00:00,217.0,10.18,225.0,11.94,13.53,47.59359,-54.27349
2023-07-27 21:34:00+00:00,220.0,11.31,225.0,12.93,13.53,47.59359,-54.27349
2023-07-27 21:44:00+00:00,216.0,9.91,222.0,12.11,13.53,47.59359,-54.27349
2023-07-27 21:54:00+00:00,212.0,10.13,214.0,11.78,13.53,47.59359,-54.27349
2023-07-27 22:04:00+00:00,217.0,10.03,221.0,11.77,13.53,47.59359,-54.27349
2023-07-27 22:14:00+00:00,219.0,11.08,224.0,12.66,13.44,47.59359,-54.27349
2023-07-27 22:24:00+00:00,217.0,10.36,220.0,12.26,13.44,47.59359,-54.27349
2023-07-27 22:34:00+00:00,220.0,12.1,225.0,13.7,13.44,47.59359,-54.27349
2023-07-27 22:44:00+00:00,219.0,11.79,210.0,14.12,13.44,47.59359,-54.27349
2023-07-27 22:54:00+00:00,220.0,11.42,224.0,13.31,13.44,47.59359,-54.27349
2023-07-27 23:04:00+00:00,217.0,11.43,223.0,13.16,13.44,47.59359,-54.27349
2023-07-27 23:14:00+00:00,215.0,11.32,222.0,12.58,12.89,47.59359,-54.27349
2023-07-27 23:24:00+00:00,217.0,10.71,225.0,12.68,12.89,47.59359,-54.27349
2023-07-27 23:34:00+00:00,214.0,9.13,223.0,10.74,12.89,47.59359,-54.27349
2023-07-27 23:44:00+00:00,212.0,10.03,218.0,11.43,12.89,47.59359,-54.27349
2023-07-27 23:54:00+00:00,216.0,9.99,223.0,12.04,12.89,47.59359,-54.27349
